Address 0x66f5599840595ac1faade74816db344928486a1d 11

 
 
Txn Hash Method
Block
From
To
Value [Txn Fee]
0xcd1765ee25ba7944e45d0fa651cbb92842ea49826e37ff64b05b88efd73efdddTransfer102069862021-08-20 23:33:0636 days 9 hrs ago0x66f5599840595ac1faade74816db344928486a1dOUT0xde10d571ba25e65495f9dba9ee83dd4298cdcb020.00188282 BNB0.000105
0xade53acaa5793cdf75fa2912541c313f939991fabe736fa7669e5c6b2cb553c5Safe Transfer Fr...102069252021-08-20 23:30:0336 days 9 hrs ago0x66f5599840595ac1faade74816db344928486a1dOUT XWorldGames: CARD Token0 BNB0.00036123
0x514800aae5d884f396b16209c634e8f6d6db104dd023aabc84e14cb20a6048030xb6a57b08101995582021-08-20 17:21:0536 days 15 hrs ago0x66f5599840595ac1faade74816db344928486a1dOUT 0xa85dfbb1bf2983917ed206b4962538e15ebb6f160 BNB0.00265095
0x2be4687871cdec6fea5e2c08ade55aa7223fd6e2f5dd1cd4e5598d7293dd37ffTransfer93730022021-07-22 7:01:0466 days 1 hr ago0x66f5599840595ac1faade74816db344928486a1dOUT0x3478068238486e274158fa60596b406bb50c027a0.129936451475743 BNB0.000105
0xba5e80c669c331c3fbec55d8fd6f79820fdbab23341eaef6dd45228288ded6aeTransfer93729952021-07-22 7:00:4366 days 1 hr ago0x66f5599840595ac1faade74816db344928486a1dOUT CryptoBlades: SKILL Token0 BNB0.00027108
0x5f5283d8db95c7de74f29cd7f57462b32c92d9adc841ebf6639e399d0e6ce64aClaim Token Rewa...93729492021-07-22 6:58:2566 days 2 hrs ago0x66f5599840595ac1faade74816db344928486a1dOUT CryptoBlades: Gameplay0 BNB0.00018971
0x436e18bc8c717b5bc8fe3bd7fe4754eab6be264e3481e433d18d1fad934d02b6Add Listing93729432021-07-22 6:58:0766 days 2 hrs ago0x66f5599840595ac1faade74816db344928486a1dOUT 0x90099da42806b21128a094c713347c7885af79e20 BNB0.00110401
0xec94a8f496bf317616cbb3ff6659251ccadcbcd411fc72ea23dd4903ed58a7feApprove93729302021-07-22 6:57:2866 days 2 hrs ago0x66f5599840595ac1faade74816db344928486a1dOUT 0xc6f252c2cdd4087e30608a35c022ce490b58179b0 BNB0.000267225
0x189941917789752d4b0bc1206d8b4669deccd28413eeeccb3e627868f9a6706bAdd Listing93729192021-07-22 6:56:5566 days 2 hrs ago0x66f5599840595ac1faade74816db344928486a1dOUT 0x90099da42806b21128a094c713347c7885af79e20 BNB0.00117901
0x1800c09693007e60203a48fc27d2ddf3aba9cd23a1da65654ee078fe30d1ac1dApprove93729132021-07-22 6:56:3766 days 2 hrs ago0x66f5599840595ac1faade74816db344928486a1dOUT 0xc6f252c2cdd4087e30608a35c022ce490b58179b0 BNB0.000267225
0x537c1ca4b802823ffb44bbffd7a547e6e4607f44055444413ddf746d222624f6Claim Xp Rewards93729002021-07-22 6:55:5866 days 2 hrs ago0x66f5599840595ac1faade74816db344928486a1dOUT CryptoBlades: Gameplay0 BNB0.00086483
0x6fbfb375df18ba49ad7c846d64fc3edf913afcf3dbb06544a1403fdffddb642aFight93728872021-07-22 6:55:1966 days 2 hrs ago0x66f5599840595ac1faade74816db344928486a1dOUT CryptoBlades: Gameplay0 BNB0.0007072
0xbd3b855957f8efc7f20f050df76e649176f76781ef4cfaa58862591bd26d89afFight93728652021-07-22 6:54:1366 days 2 hrs ago0x66f5599840595ac1faade74816db344928486a1dOUT CryptoBlades: Gameplay0 BNB0.00070219
0xdde70e74de447658b912f9a856e5d73f4a948ffa876be6795aa21ccf822a7ce0Fight93728402021-07-22 6:52:5866 days 2 hrs ago0x66f5599840595ac1faade74816db344928486a1dOUT CryptoBlades: Gameplay0 BNB0.00070335
0x5c516094749eca6c8ef4b1c261f09446338bc1d76724ea0e26c584d8d37d2b4aFight93728092021-07-22 6:51:2566 days 2 hrs ago0x66f5599840595ac1faade74816db344928486a1dOUT CryptoBlades: Gameplay0 BNB0.00066081
0xd5a039570344636bc4af9858da201421d02cfbea80ff8717b5c22b628befd207Fight93727922021-07-22 6:50:3466 days 2 hrs ago0x66f5599840595ac1faade74816db344928486a1dOUT CryptoBlades: Gameplay0 BNB0.00087928
0x8d9f606347ce8e8c6d6d812f8491f09376bc13ab744db8bf2825806e5d20c870Mint Character93727502021-07-22 6:48:2866 days 2 hrs ago0x66f5599840595ac1faade74816db344928486a1dOUT CryptoBlades: Gameplay0 BNB0.00153942
0x0bc7d3552d29e1084c65d0fe8dc45c91cb7d202e9d083051fe93ffb299d605bbApprove93727422021-07-22 6:48:0466 days 2 hrs ago0x66f5599840595ac1faade74816db344928486a1dOUT CryptoBlades: SKILL Token0 BNB0.000224845
0xb524544218ef631840fc3a74ecd0cadac7b2d240c6415888f0c3226e445303abFight93727032021-07-22 6:46:0766 days 2 hrs ago0x66f5599840595ac1faade74816db344928486a1dOUT CryptoBlades: Gameplay0 BNB0.000707235
0x4f9a97d4435a7cb08dc80a681a7f138774184dace4b08e9d56e9948e42d345abFight93726852021-07-22 6:45:1366 days 2 hrs ago0x66f5599840595ac1faade74816db344928486a1dOUT CryptoBlades: Gameplay0 BNB0.00070208
0x6c149086707239d6a653027338bd27dcede060387a24cc92eb490d51152af980Fight93726552021-07-22 6:43:4366 days 2 hrs ago0x66f5599840595ac1faade74816db344928486a1dOUT CryptoBlades: Gameplay0 BNB0.000660205
0x7199ef1a268f286f69b69053fd7dc98fc7adefdb9b51d41561f56fa06b3353a6Fight93726372021-07-22 6:42:4966 days 2 hrs ago0x66f5599840595ac1faade74816db344928486a1dOUT CryptoBlades: Gameplay0 BNB0.00065965
0x1bba20a07a963bc1def98aae730d343967b4f654863dc98837a873ed14d397f9Fight93726042021-07-22 6:41:1066 days 2 hrs ago0x66f5599840595ac1faade74816db344928486a1dOUT CryptoBlades: Gameplay0 BNB0.00095814
0x75fad8e8df75da56f8f51cde4e6b98666e0c22607c513ee6841dda47ca7b1ab7Mint Character93725872021-07-22 6:40:1966 days 2 hrs ago0x66f5599840595ac1faade74816db344928486a1dOUT CryptoBlades: Gameplay0 BNB0.0031664
0x6eb2e8b8fee71fb54b22f57d38503e8834b4e4a0619c13fb738b1f0e9b502d3aApprove93725822021-07-22 6:40:0466 days 2 hrs ago0x66f5599840595ac1faade74816db344928486a1dOUT CryptoBlades: SKILL Token0 BNB0.000224845
[ Download CSV Export 
Latest 1 internal transaction
Parent Txn Hash Block From To Value
0x40944d922f2e3c8c3c75cf45007ffce452924f7a0fb1d03450c5c1060f86af08101994642021-08-20 17:16:2336 days 15 hrs ago 0xe73f10e30ba43e55dcb9844e9a91fc1c42ad0fea0x66f5599840595ac1faade74816db344928486a1d0.005 BNB
[ Download CSV Export 
Loading

Contract Name:
0 BNB

Compiler Version
0

Optimization Enabled:
0 BNB

Other Settings:
-NA-
Block Transaction Gas Used Reward
Age Block Fee Address BC Fee Address Voting Power Jailed Incoming
Block Uncle Number Difficulty Gas Used Reward
Loading
Loading
Make sure to use the "Vote Down" button for any spammy posts, and the "Vote Up" for interesting conversations.